Track IRIDIUM 168 now! 10-day predictions IRIDIUM 168 is classified as:
1 43924U 19002C 22177.66535775 .00000156 00000-0 48679-4 0 9997 2 43924 86.3983 240.1854 0002245 100.0552 260.0897 14.34213609180926